Regional Weather Roundup
Issued by NWS

Home | Current Version | Previous Version | Graphics & Text | Print | Product List | Glossary On
Versions: 1 2 3 4 5 6 7 8 9 10 11 12 13 14 15 16 17 18 19 20 21 22 23 24 25 26 27 28 29 30 31 32 33 34 35 36 37 38 39 40 41 42 43 44 45 46 47 48 49 50
000
ASUS43 KLOT 070308
RWRIL

ILLINOIS REGIONAL WEATHER ROUNDUP
NATIONAL WEATHER SERVICE CHICAGO/ROMEOVILLE IL
1000 PM CDT WED MAY 06 2015

NOTE: "FAIR" INDICATES FEW OR NO CLOUDS BELOW 12,000 FEET WITH NO
SIGNIFICANT WEATHER AND/OR OBSTRUCTIONS TO VISIBILITY.

* THESE STATIONS ARE NOT UNDER NWS QUALITY CONTROL. THEY ALSO MAY NOT
  REPORT WEATHER SUCH AS PRECIPITATION OR FOG.

ILZ001-002-007-009-015-016-024-070400-
NORTHWEST ILLINOIS

CITY           SKY/WX    TMP DP  RH WIND       PRES   REMARKS
MOLINE         PTCLDY    65  60  84 E6        29.99R
STERLING*      CLEAR     66  57  72 CALM      30.02S
SAVANNA*       PTCLDY    64  59  82 E5        30.01R
$$

ILZ003-004-008-010-011-017-018-070400-
NORTH CENTRAL ILLINOIS

CITY           SKY/WX    TMP DP  RH WIND       PRES   REMARKS
ROCKFORD       PTCLDY    67  58  72 E10       30.04S
FREEPORT*      PTCLDY    62  56  80 W3        30.04R
ROCHELLE*      PTCLDY    65  57  74 SE7       30.04R
DE KALB*       PTCLDY    62  57  84 E10       30.06R HAZE
PERU*          PTCLDY    72  53  52 S7        30.04R
$$

ILZ005-006-012>014-019>023-070400-
NORTHEAST ILLINOIS

CITY           SKY/WX    TMP DP  RH WIND       PRES   REMARKS
CHICAGO-OHARE  MOCLDY    57  51  80 NE6       30.07R
CHICAGO-MIDWAY MOCLDY    60  52  74 E6        30.08R
AURORA         PTCLDY    64  56  75 E5        30.06R HAZE
LANSING*       CLOUDY    61  52  73 NE3       30.08S
JOLIET*        PTCLDY    68  60  75 E6        30.06S
WAUKEGAN       CLOUDY    47  47 100 NE3       30.08S FOG
DUPAGE AIRPORT MOCLDY    63  56  78 E3        30.06R HAZE
KANKAKEE*      PTCLDY    70  57  64 CALM      30.07S
WHEELING       MOCLDY    51  48  89 NE3       30.10R
MORRIS*        PTCLDY    70  54  56 E5        30.04R
ROMEOVILLE*    PTCLDY    63  56  77 E6        30.06S
NORTHERLY ISL    N/A     50  48  93 N2          N/A
$$

LMZ740>746-070400-
SOUTHERN LAKE MICHIGAN

STATION/POSITION SKY/WX   TEMP    WIND        PRES    VSBY  WAVE
                          AIR SEA DIR/SP/G                  HT/PER
                          (F)     (DEG/KT/KT) (MB)    (MI)  (FT/S)
HARRISON CRIB              46     350/  7/  8   N/A
BURNHAM HARBOR             50      20/  2/  5   N/A
CALUMET HARBOR             49     360/  4/  6   N/A
BURNS HARBOR               57     110/  3/  8 1018.6S
MICHIGAN CITY              68     100/  3/  4   N/A
MICHIGAN CITY 6N           56 53   90/  6/  6   N/A           1
ST. JOSEPH                 65 52  130/  8/ 10   N/A           1
$$

ILZ025>027-034>036-040-047-049-050-058-095>099-070400-
WEST-CENTRAL ILLINOIS

CITY           SKY/WX    TMP DP  RH WIND       PRES   REMARKS
QUINCY         CLOUDY    70  55  59 SE7       29.99R
GALESBURG*     MOCLDY    67  60  79 E3        30.01R
MACOMB*        CLEAR     66  61  82 E6        30.03R
JACKSONVILLE*  CLEAR     74  53  47 SE8       30.02S
PITTSFIELD*    CLEAR     71  52  51 SE5       30.02S
$$

ILZ028>032-037-038-041>044-048-051>054-059>061-070400-
CENTRAL ILLINOIS

CITY           SKY/WX    TMP DP  RH WIND       PRES   REMARKS
PONTIAC        PTCLDY    67  59  75 SE6       30.06R
BLOOMINGTON    CLEAR     69  55  60 S8        30.07R
DECATUR        CLEAR     71  53  52 S7        30.06R
PEORIA         CLEAR     75  53  46 S10       30.03R
LACON*         CLEAR     70  53  54 SE9       30.02R
LINCOLN*       CLEAR     71  53  52 S3        30.02R
SPRINGFIELD    CLEAR     72  53  51 S9        30.04R
TAYLORVILLE    CLEAR     70  54  56 S6        30.05R
$$

ILZ033-039-045-046-055>057-062-063-070400-
EAST-CENTRAL ILLINOIS

CITY           SKY/WX    TMP DP  RH WIND       PRES   REMARKS
CHAMPAIGN      PTCLDY    70  50  49 SE5       30.07R
DANVILLE*      PTCLDY    70  53  55 SE5       30.06S
RANTOUL*       MOCLDY    70  55  58 CALM      30.07S
MATTOON        CLEAR     69  54  58 S3        30.06S
PARIS*         PTCLDY    70  55  57 SE5       30.09S
$$

ILZ079-100>102-070400-
SOUTHWEST ILLINOIS

CITY           SKY/WX    TMP DP  RH WIND       PRES   REMARKS
ALTON          CLEAR     70  54  56 SE9       30.03R
BELLEVILLE     CLEAR     69  57  65 SE3       30.03R
CAHOKIA*       CLEAR     72  54  53 S5        30.02R
SPARTA*        CLEAR     69  56  63 SE3       30.05R
$$

ILZ064>066-069>071-074>076-080>082-084>086-088>090-092>094-070400-
SOUTH-CENTRAL ILLINOIS

CITY           SKY/WX    TMP DP  RH WIND       PRES   REMARKS
CARBONDALE     CLEAR     66  55  67 SE7       30.05R
CAIRO*         CLEAR     71  56  59 SE3       30.05S
EFFINGHAM*     CLEAR     67  53  60 E3        30.08R
MARION         CLEAR     72  57  60 SE5       30.07R
MT. VERNON     CLEAR    N/A N/A N/A CALM      30.07R
CENTRALIA*     CLEAR     65  55  70 CALM      30.06R
SALEM*         CLEAR     72  57  58 CALM      30.07R
METROPOLIS*    CLEAR     66  59  78 CALM      30.06S
$$

ILZ067-068-072-073-078-083-087-091-070400-
SOUTHEAST ILLINOIS

CITY           SKY/WX    TMP DP  RH WIND       PRES   REMARKS
LAWRENCEVILLE  CLEAR     68  57  68 E7        30.08S
FLORA*         CLEAR     67  55  64 SE3       30.07R
FAIRFIELD*     CLEAR     68  59  73 CALM      30.06R
HARRISBURG*    CLEAR     67  56  67 CALM      30.08R
ROBINSON*      CLEAR     71  54  56 S6        30.09R
CARMI*         CLEAR     67  55  65 E3        30.06S
$$

ABBREVIATIONS USED IN REMARKS
   TC - TEMPERATURE IN CELSIUS
  WCI - WIND CHILL INDEX
   HX - HEAT INDEX
  VSB - VISIBILITY
$$




USA.gov is the U.S. government's official web portal to all federal, state and local government web resources and services.